Weather in Ilmen

Russia / Novgorod Oblast     58°23′42″N   31°11′56″E
temp.,
°C
wind,
m/s
gust,
m/s
humid.,
%
clouds,
%
prec.,
mm/h
press.,
hPa
HPBL,
m
3 march, wed
wed300:00−1wnw410870 0.0 1019400
03:00−1wnw411910 0.0 1019399
06:00−2w4119311 0.0 1017410
09:00−1wnw5118849 0.0 1017574
12:00+1w61081100 0.0 1016715
15:00+3w51072100 0.0 10131133
18:00+2wsw41278100 0.0 1009777
21:00+2w61490100 0.0 1006855
4 march, thu
thu400:00+2wnw61394100 0.2 1003847
03:000wnw4118385 0.8 1004674
06:00−3wnw410810 0.0 1003476
09:00−3wnw38820 0.0 1004438
12:000nw35660 0.0 1003773
15:00+1nw356415 0.1 10031063
18:00−1nw387642 0.3 1003450
21:00−3nnw597971 0.5 1005804
5 march, fri
fri500:00−5nnw487987 0.0 1005699
03:00−6nw388276 0.0 1007620
06:00−6nw378387 0.0 1008671
09:00−7nw477892 0.1 1009735
12:00−5nw4669100 0.0 1010868
15:00−4nw4566100 0.1 10121022
18:00−5nnw3675100 0.1 1013757
21:00−6n3678100 0.1 1016697
6 march, sat
sat600:00−8nnw248230 0.0 1017240
03:00−8wnw258817 0.0 1018186
06:00−9wnw26860 0.0 1018260
09:00−8w368415 0.0 1018359
12:00−4w367136 0.0 1017730
15:00−2wsw595864 0.0 10141382
18:00−3sw61361100 0.0 10091236
21:00−3sw81693100 1.5 10031325
7 march, sun
sun700:00−2wsw91793100 2.1 9971223
03:00−1wsw81591100 3.4 9931013
06:00−6nw71859100 2.8 9931688
09:00−8wsw498767 3.1 994699
12:00−6wnw61175100 1.0 9921506
15:00−6wnw71379100 1.4 9921479
18:00−5nw81391100 1.0 9941120
21:00−8nnw4118397 1.1 998724